COSMOS 2251 DEB, 35993

Orbit data source: Space-Track

COSMOS 2251 DEB, 35993 is space debris in LEO originally from a launch on Wed, 16 Jun 1993 UTC launched from the Plesetsk Missile And Space Complex (PKMTR). The debris from Iridium 33, an American commercial communications satellite, has been tracked extensively since its accidental collision with the defunct Russian satellite Cosmos 2251 in 2009. This event, occurring at high speed in low Earth orbit (LEO), generated thousands of pieces of space debris, significantly increasing the risk of further collisions. The Iridium 33 debris cloud has impacted space traffic management and orbital debris mitigation strategies, making it a subject of ongoing study in space situational awareness.

Loading next visibility...
Identifier
35993, 1993-036AWK
Orbit
LEO
Country
Flag of CISCIS
Related business
Manufacturer
Unknown
Mission
Spacecraft
Bus & Motor
Unknown
Mass
Unknown
Launch date (UTC)
1993-06-16 (33 years ago)
Launch vehicle
Unknown
Launch site
Plesetsk Missile And Space Complex (PKMTR)
Object type
Payload
Rocket body
Debris
Shape & HBR
Unknown shape, 0.1 m
Radar Cross Section
Small (<0.1 m²)

Expand to show TLE details & history
Last TLE update: 2 days ago

TLE from 2 days ago
0 COSMOS 2251 DEB
1 35993U 93036AWK 26120.51147582  .00003092  00000-0  56064-3 0  9992
2 35993  74.0131  65.1251 0031403 216.9139 142.9869 14.66411545624760
Epoch: 2026-04-30T12:16Z
TLE epoch observation values (Epoch: 2026-04-30T12:16:31.510Z)
Latitude
-0.00007°
Longitude
22.53676°
Altitude
692.902 km
Speed
7.501 km/s
True Right ascension
04h 20m 30s
True Declination
0° 00' 00"
Sunlit
Object was in daylight at epoch
Visualization orbit readout
Latitude
Unknown
Longitude
Unknown
Altitude
Unknown
Speed
Unknown
Apparent Right ascension
Unknown
Apparent Declination
Unknown
Sunlit
N/A
Visualization observer readout
Local Sidereal Time
20:46:57
Azimuth
Unknown
Elevation
Unknown
Doppler factor
Unknown
Orbital elements
Apogee altitude
692.273 km
Perigee altitude
648.006 km
Semi-major axis
7,048.277 km
Eccentricity
0.00314
Inclination
74.0131°
RAAN
65.1251°
Arg. of periapsis
216.9139°
True anomaly
143.20285°
Mean anomaly
142.9869°
Eccentric anomaly
143.09494°
Mean motion
3.66791 °/min
Orbital period
98.15 mins
BSTAR
0.00056064
Loading maneuver chart data...
Computing Atmospheric mass density...
Loading historical data...
Loading historical data...
Loading historical data...
Loading historical data...
Loading historical data...
Loading historical data...
Loading historical data...

Documentation

Showing up to 5 results
|